Location: Chlorvila
(42.2908°N, 43.4219°E)
Time: 01:29:52
(UTC+00:00)

Daily predictions for brighter satellites

Satellite Brightness Start Highest point End
(mag) Time Altitude Azimuth Time Altitude Azimuth Time Altitude Azimuth
SeaSat 1 3.9 00:00:08 10° NE 00:04:29 30° ESE 00:08:09 13° SSE
Cosmos 1892 Rocket 3.8 00:03:46 10° NNW 00:08:05 48° W 00:09:01 41° SW
COBE Rocket 4.4 00:08:04 34° WSW 00:08:24 34° W 00:12:39 10° NNW
Cosmos 1461 3.2 00:10:40 40° WSW 00:12:02 62° NW 00:16:31 10° NNE
Cosmos 2082 4.3 00:11:37 29° WSW 00:13:55 42° WNW 00:19:15 10° NNE
CZ-2D R/B 3.4 00:11:48 10° NNE 00:15:52 75° ESE 00:17:52 28° S
CZ-2C R/B 3.7 00:12:58 10° NNE 00:16:42 43° E 00:19:22 17° SSE
ATLAS CENTAUR R/B 4.3 00:17:51 10° ESE 00:18:11 10° ESE 00:18:31 10° ESE
Cosmos 1340 Rocket 2.9 00:18:42 39° SW 00:19:57 59° W 00:23:54 10° N
Cosmos 2112 Rocket 4.1 00:17:13 10° NNW 00:22:18 53° WSW 00:26:24 15° S
Meteor 1-24 Rocket 4.3 00:20:06 10° NNW 00:24:57 33° W 00:26:47 26° SW
NOSS 2-3 (E) 3.7 00:23:06 28° SSW 00:25:14 68° ESE 00:30:00 10° NE
ERS-2 3.5 00:22:28 10° SE 00:25:52 39° ENE 00:29:18 10° N
Cosmos 1953 2.4 00:23:38 22° S 00:26:10 76° E 00:30:13 10° NNE
SL-16 R/B 2.6 00:21:41 10° NW 00:26:57 40° WSW 00:30:51 17° SSW
SL-4 R/B 1.4 00:23:54 10° NW 00:27:20 85° NE 00:30:44 10° ESE
SL-16 R/B 4.1 00:28:37 16° W 00:29:01 16° W 00:32:38 10° NW
Cosmos 1937 Rocket 3.6 00:26:45 26° SW 00:29:42 64° WNW 00:35:01 10° NNE
USA 267 3.3 00:24:50 10° SE 00:31:23 86° NE 00:37:58 10° NW
Cosmos 1726 2.0 00:29:36 27° SSW 00:31:30 81° W 00:35:12 10° N
NOSS 3-1 (C) 3.4 00:30:01 25° SW 00:33:15 63° NW 00:39:31 10° NNE
Cosmos 1898 Rocket 4.1 00:31:24 24° WSW 00:34:02 42° WNW 00:39:01 10° N
ARIANE 5 R/B 2.8 00:29:24 10° N 00:34:28 53° WNW 00:37:43 22° SW
H-2A R/B 2.2 00:31:10 10° SSE 00:35:16 71° ENE 00:39:22 10° N
CZ-2D R/B 4.2 00:33:04 10° NNW 00:35:40 14° WNW 00:38:05 10° W
IDEFIX/ARIANE 42P 2.5 00:31:47 10° N 00:36:59 77° WNW 00:41:07 16° SSW
BREEZE-M TANK 3.2 00:36:14 10° WNW 00:39:45 82° SSW 00:50:34 10° ESE
Cosmos 1680 Rocket 4.2 00:35:24 10° NW 00:39:57 31° W 00:42:46 19° SSW
Cosmos 1553 Rocket 4.4 00:37:43 10° S 00:43:40 63° E 00:49:41 10° NNE
Cosmos 1607 4.4 00:37:47 10° NW 00:43:41 39° WSW 00:49:33 10° S
Timation 1 Rocket 4.5 00:39:47 20° SW 00:43:54 62° WNW 00:49:50 10° NNE
ADEOS II 3.4 00:40:36 10° NNW 00:44:46 24° WNW 00:47:28 16° WSW
Cosmos 1544 Rocket 4.4 00:42:52 22° WSW 00:44:57 34° WNW 00:49:02 10° N
Cosmos 2263 Rocket 2.1 00:42:10 16° SSW 00:46:40 88° WNW 00:52:16 10° NNE
NOSS 2-3 (D) 3.6 00:46:11 21° SW 00:48:59 80° NW 00:53:52 10° NE
Cosmos 2297 Rocket 4.3 00:46:37 10° WNW 00:49:20 13° NW 00:52:04 10° NNW
CZ-4C R/B 2.7 00:48:14 10° S 00:51:25 72° WSW 00:54:41 10° NNW
Meteor 2-10 4.3 00:48:18 15° SSW 00:52:39 57° WNW 00:58:11 10° N
Cosmos 372 Rocket 4.0 00:48:15 14° SSW 00:52:46 84° WNW 00:58:02 10° NNE
COSMOS 2441 4.3 00:50:04 10° NNE 00:54:53 85° WNW 00:59:41 10° SSW
CZ-4B R/B 3.7 00:52:39 10° SE 00:55:30 27° ENE 00:58:19 10° NNE
Cosmos 1703 3.4 00:56:38 10° N 01:00:36 79° E 01:04:33 10° S
OAO 3 Rocket 4.4 01:00:01 15° SW 01:03:18 28° SSE 01:07:30 10° ESE
Meteor 2-21 Rocket 4.5 00:59:16 10° NNW 01:05:14 61° W 01:11:11 10° S
Cosmos 1125 Rocket 4.2 01:00:17 10° S 01:05:20 53° ESE 01:10:27 10° NNE
Cosmos 1602 Rocket 3.9 01:01:53 10° NNW 01:06:03 44° W 01:10:09 10° SSW
USA 229 DEB 4.1 01:01:07 14° WSW 01:06:34 49° NW 01:13:13 10° NNE
USA 229 4.1 01:01:13 14° WSW 01:06:38 50° NW 01:13:17 10° NNE
Cosmos 1603 3.7 01:00:55 10° NNW 01:06:38 71° WSW 01:12:18 10° SSE
CZ-2C R/B 2.6 01:02:05 10° NNE 01:06:39 65° ESE 01:11:14 10° S
Cosmos 1606 Rocket 4.0 01:03:01 10° S 01:07:27 68° E 01:11:55 10° NNE
Meteor 2-16 Rocket 4.4 01:02:35 10° NNW 01:08:43 69° W 01:14:48 10° S
DEBRIS 1.6 01:07:51 16° SW 01:09:44 78° SSE 01:11:47 10° ENE
S3M 4.3 01:04:12 10° S 01:10:31 75° E 01:16:56 10° N
Cosmos 1844 Rocket 4.4 01:08:42 10° SSE 01:13:34 32° ESE 01:18:26 10° NE
Cosmos 1300 4.2 01:10:40 10° SSE 01:14:11 37° E 01:17:44 10° NNE
SL-08 R/B 4.5 01:11:11 10° N 01:17:23 75° W 01:23:36 10° S
NOSS 2-3 (C) 4.3 01:13:41 12° WSW 01:17:24 44° NW 01:22:10 10° NNE
NOSS 3-1 (A) 3.7 01:12:40 12° WSW 01:17:37 51° NW 01:23:49 10° NNE
ATLAS 3B CENTAUR R/B 3.9 01:14:05 10° WSW 01:20:58 21° SSW 01:25:04 10° SSE
Cosmos 2298 Rocket 4.1 01:17:09 10° SSW 01:22:25 64° WNW 01:27:43 10° NNE
ADEOS Rocket 4.3 01:15:17 10° SSE 01:22:39 62° ENE 01:30:20 10° N
Cosmos 1484 Rocket 4.5 01:20:31 10° NNE 01:23:54 33° E 01:27:15 10° SSE
Cosmos 1726 Rocket 3.7 01:21:01 10° S 01:25:28 85° E 01:29:58 10° N
Cosmos 2084 4.1 01:22:52 10° SSW 01:27:08 55° ESE 01:31:29 10° NE
MSX 4.4 01:25:15 10° N 01:30:36 41° WNW 01:35:56 10° SW
ALOS 3.7 01:26:16 10° NNE 01:30:42 41° E 01:35:06 10° SSE
Cosmos 1943 3.4 01:28:28 10° NW 01:33:53 50° WSW 01:39:16 10° S
